MST,Max TemperatureF,Mean TemperatureF,Min TemperatureF,Max Dew PointF,MeanDew PointF,Min DewpointF,Max Humidity, Mean Humidity, Min Humidity, Max Sea Level PressureIn, Mean Sea Level PressureIn, Min Sea Level PressureIn, Max VisibilityMiles, Mean VisibilityMiles, Min VisibilityMiles, Max Wind SpeedMPH, Mean Wind SpeedMPH, Max Gust SpeedMPH,PrecipitationIn, CloudCover, Events, WindDirDegrees
2013-1-1,7,-4,-15,1,-7,-20,87,75,63,30.66,30.37,30.12,10,5,1,5,0,6,T,7,Snow,301
2013-1-2,12,-1,-14,7,-7,-22,90,77,63,30.76,30.44,30.22,10,4,0,8,1,10,T,5,Snow,212
2013-1-3,6,-6,-19,-6,-19,-29,79,67,55,30.94,30.63,30.36,10,5,0,6,0,7,0.00,5,,20
2013-1-4,7,-7,-21,-2,-17,-30,76,66,56,30.87,30.54,30.23,10,5,0,5,0,6,0.00,6,,130
2013-1-5,11,-5,-21,-3,-18,-31,75,65,55,30.89,30.58,30.27,10,5,0,5,0,6,0.00,5,,211
2013-1-6,10,-3,-17,-1,-14,-26,79,68,57,30.75,30.46,30.26,10,5,0,3,0,6,0.00,4,,-1
2013-1-7,16,0,-16,6,-10,-22,83,72,61,30.55,30.33,30.07,10,8,1,13,1,15,0.00,3,,331
2013-1-8,30,16,1,20,11,-3,88,76,63,30.60,30.43,30.18,10,10,10,8,1,8,0.00,8,,288
2013-1-9,23,11,-2,16,1,-6,91,80,68,30.67,30.49,30.27,10,6,0,7,1,8,0.00,2,,250
2013-1-10,37,16,-5,21,7,-10,80,66,52,30.28,29.95,29.51,10,10,10,23,4,31,0.00,1,,122
2013-1-11,37,16,-5,27,15,-9,92,72,52,30.10,29.58,29.37,10,4,0,38,13,48,0.02,8,Fog-Snow,246
2013-1-12,5,-6,-18,-2,-10,-20,87,81,75,30.32,30.13,29.83,10,8,2,7,1,7,T,7,Snow,131
2013-1-13,2,-13,-28,-6,-13,-33,87,79,70,30.57,30.15,29.92,10,5,2,6,1,7,0.01,7,Snow,231
2013-1-14,-9,-22,-36,-18,-27,-38,86,71,56,30.86,30.50,30.07,10,8,2,5,1,6,T,2,Snow,161
2013-1-15,10,-10,-31,1,-9,-33,77,70,63,30.89,30.77,30.35,10,10,7,13,2,15,0.00,8,,209
2013-1-16,15,2,-11,5,-5,-15,83,75,67,30.90,30.76,30.42,10,10,10,9,2,10,0.00,2,,248
2013-1-17,17,3,-11,9,-7,-16,82,68,53,31.00,30.75,30.45,10,5,0,6,0,7,0.00,5,Fog,146
2013-1-18,17,3,-12,6,-11,-21,91,72,53,30.84,30.63,30.40,10,6,0,7,0,8,0.00,3,,229
2013-1-19,20,4,-13,10,-6,-20,87,77,67,30.88,30.72,30.32,10,10,8,9,1,10,0.00,1,,260
2013-1-20,19,2,-15,8,-7,-19,87,74,61,30.80,30.70,30.29,10,10,10,5,0,5,0.00,0,,-1
2013-1-21,18,2,-14,8,-9,-20,87,75,63,30.83,30.68,30.37,10,10,10,6,1,8,0.00,1,,223
2013-1-22,20,2,-16,9,-8,-22,87,75,62,30.79,30.72,30.63,10,10,10,8,1,8,0.00,0,,218
2013-1-23,22,5,-13,11,-3,-17,90,75,59,30.79,30.68,30.55,10,10,10,5,0,7,0.00,0,,182
2013-1-24,39,21,3,31,21,0,89,76,63,30.53,30.42,30.25,10,10,10,21,3,23,T,7,Rain,228
2013-1-25,36,34,31,31,30,28,92,87,82,30.36,30.29,30.19,10,7,2,6,0,6,0.00,8,,230
2013-1-26,41,37,32,32,31,30,96,83,70,30.21,29.95,29.81,10,5,1,9,1,10,0.15,8,Rain-Snow,92
2013-1-27,42,37,31,32,30,25,96,78,59,29.91,29.82,29.72,10,6,2,30,6,38,0.17,7,Rain-Snow,232
2013-1-28,39,27,14,30,19,7,88,76,64,30.00,29.80,29.69,10,4,0,28,9,36,0.08,8,Fog-Snow,269
2013-1-29,18,8,-2,13,7,-6,96,82,67,30.27,29.94,29.78,10,5,0,9,2,10,0.05,7,Fog-Snow,248
2013-1-30,30,13,-5,21,7,-9,88,76,63,30.29,30.18,30.01,10,8,2,28,10,31,T,8,Snow,131
2013-1-31,36,30,24,22,20,18,81,69,56,30.37,30.28,30.17,10,10,6,24,10,29,T,6,Snow,244